User: anonymous
Location: Trois-Rivi�res
(46.3500°N, 72.5500°W)
Time: 06:27:34
(UTC-04:00)
Language:

Cosmos 1544 - Orbit

View from above orbital plane
View from above orbital plane
View from above satellite
View from above satellite

Ground track
Ground track

The orbit data is extracted from the following two-line orbital elements,

1 14819U 84027A   14112.81735425  .00009537  00000-0  48541-3 0  9010
2 14819 082.4873 098.4429 0019721 108.6722 321.6440 15.16515176640658
Epoch (UTC): 22 April 2014 19:36:59
Eccentricity: 0.0019721
inclination: 82.4873°
perigee height: 503 km
apogee height: 530 km
right ascension of ascending node: 98.4429°
argument of perigee: 108.6722°
revolutions per day: 15.16515176
mean anomaly at epoch: 321.6440°
orbit number at epoch: 64065

The dashed part of the orbit path shows where the satellite is in the earth's shadow,  

DLR